Location: Cave
(41.8160°N, 12.9350°E)
Time: 12:02:15
(UTC+01:00)

ISS - Pass Details

Date: 05 March 2019
Orbit: 406 x 411 km, 51.6° (Epoch: 20 March)

Event Time Altitude Azimuth Distance (km) Brightness Sun altitude
Exits shadow 06:03:53 - 310° (NW) 1,901 -0.9 -7.1°
Reaches altitude 10° 06:05:23 10° 326° (NW) 1,469 -1.3 -6.8°
Maximum altitude 06:07:22 15° 3° (N) 1,205 -1.4 -6.4°
Drops below altitude 10° 06:09:22 10° 41° (NE) 1,469 -0.4 -6.1°
Sets 06:12:08 0° 66° (ENE) 2,330 1.3 -5.5°
